sat.trackr.live / text

‹ back to catalog

STARLINK-34283

NORAD 64214 · 2025-117M

PAYLOAD ACTIVE UNKNOWN

§ Identity

Operator
Country
US
Launch date
2025-05-31
Launch site
AFWTR
Launch vehicle
Mass (kg)
RCS (m²)

Purposes: comms

External: N2YO · Heavens-Above · Gunter

§ Orbital elements

Epoch: 2026-05-24T23:43:26.946048Z

Period
93.85 min
Inclination
53.1602°
Eccentricity
0.0001095
Mean motion
15.34410037 rev/d
Perigee alt
461.9 km
Apogee alt
463.4 km
Semi-major
6,840.8 km
B*
9.0846e-4
RAAN
44.0542°
Arg perigee
82.5481°
Mean anomaly
277.5646°
Rev number
5,622

§ Raw data

STARLINK-342831 64214U 25117M   26144.98850632  .00030452  00000+0  90846-3 0  99942 64214  53.1602  44.0542 0001095  82.5481 277.5646 15.34410037 56228

JSON: /api/v1/satellites/64214 · /tle

For live sub-satellite position, see the globe view (requires WebGL).

§ Visibility from observer

Set your observer location to see the next 7 days of passes ≥ 10°. The values pass through the URL so the page stays shareable.

No JS? Fill the form by hand. The geolocation button needs JavaScript.